STARLINK-32220 (60370 NORAD) Tracking and Keplerian Element Data

This shows tracking and keplerian element data for the satellite.

Feedback or suggestion? Click here.




ElementValue
Catalog60370
NameSTARLINK-32220
Epoch Orbit1197
Epoch Day286.43217527
Epoch Year2024
RAAN178.7427
Inclination53.1593
Eccentricity0.0001645
Argument of Perigee85.0031
Mean Anonmoly275.1162
Mean Motion15.3962115
Decay Rate-1.735E-05
L11 60370U 24138R 24286.43217527 -.00001735 00000+0 -33400-4 0 9998
L22 60370 53.1593 178.7427 0001645 85.0031 275.1162 15.39621150 11978



Live tracking and technical data element details for STARLINK-32220 (NORAD 60370). STARLINK-32220 can be tracked NOW for your location showing map with azimuth and elevation plus other details from your city location.







IsCatalogInMostPopularTable: catalog: 60370, numindb: 9
Update: records affected: 1



GetName: 60370 STARLINK-32220

Hit Count: updated at: Wed, 04 Dec 2024 19:46:22 GMT